Погода в Рыбинске

Погода в Рыбинске : погода сейчас, прогноз погоды и архив. Всё, что Вы хотите узнать о погоде в Рыбинске!

Хотите узнать прогноз погоды в Рыбинске? Тогда Вам сюда: Погода в Рыбинске

Поиск расширенной информации на нашем сайте:

Другие новости

Новости СМИ2

Главная страница сайта

Новости сайта

02.10.2013

Напоминаем, что на нашем новом сайте вы можете получить высокодетализированные прогнозы погоды по пунктам России, СНГ и мира (включающие важные для авиации метеовеличины, такие как направление и скорость ветра, видимость, явления погоды, количество и форма облачности, нижняя и верхняя граница облачности), а также ознакомиться с разнообразными материалами по авиационной метеорологии и подборкой полезных ссылок на эту тему.

Сайт Метеоцентр.Азия посвящён разработке технологий оптимизации авиаметеорологического обслуживания, включая проектирование и перспективное создание нескольких автоматизированных авиаметеорологических систем:
- система выпуска высокодетальных прогностических карт явлений погоды для нижнего воздушного пространства по России и ближнему зарубежью;
- система верификации прогнозов TAF (выпускаемых синоптиками официальных АМСГ РФ и ближнего зарубежья) и AUTOTAF (выпускаемых сайтом Метеоцентр.Азия) - выявление ошибок, онлайн-сопоставление с фактической погодой METAR, автоматическое внесение коррективов в прогнозы при резком отклонении фактической погоды от прогноза, подсчёт оправдываемости прогнозов по элементам и в целом;
- система обработки, анализа и отображения авиаметеорологической информации для применения провайдерами метеорологической информации.

Рекомендуем: Женский журнал http://clubkrasotki.ru

Погода в Рыбинске - сегодня

Время (UTC), дата Ветер
(°,м/с) 
Видим.   Явления Облачность Т
(°С)
Тd
(°С)
f(%) Тe
(°С)
Pmin
(гПа)
dP
(гПа)
Po
(мм)
O2
(г/м3)
Тmin Tmax R s Состояние
почвы
21 25.05.17 240 (ЮЗ) 10 км    3/3 300 м 
[Sc]
+9.7 +7.3 85 +11  1008.1  0.3  747  289           
00 26.05.17 220 (ЮЗ) 10 км    3/3 300 м 
[Sc]
+8.5 +6.6 88 +10  1008.3  0.2  747  291           
03 26.05.17 220 (ЮЗ) 12000 м    3/3 300 м 
[Cu med, cong]
+10.5 +7.4 81 +12  1008.6  0.3  747  289  +8.4      мокрая 
06 26.05.17 250 (З) 13000 м    6/3 300 м средняя 
[Cu med, cong|Ac trans]
+15.2 +8 62 +17  1008.8  0.3  747  284           
09 26.05.17 280 (З) 14000 м    10/6 300 м верхняя 
[Cu med, cong|Ci fib]
+18.3 +7.6 50 +20  1008  -0.7  747  281           
12 26.05.17 170 (Ю) 12000 м  слаб. ливневой дождь, в посл. час гроза  10/10 300 м кучево-дожд. 
[Cb calv]
+12.3 +10.7 90 +16  1008.3  0.1  747  286           
18 26.05.17 260 (З) 10 км  {ливн. осадки}  10/10 600 м 
[Cu med, cong]
+11.1 +9.3 89 +11  1008.3  0.3  747  287           
21 26.05.17 320 (СЗ) 10 км    3/3 300 м 
[Sc]
+10.1 +8.3 89 +10  1009.3  0.9  747  289           
03 27.05.17 360 (С) 14000 м    3/3 300 м 
[Sc]
+9 +4.2 72 +10  1012.8  1.6  750  292  +7    0.3    мокрая 
06 27.05.17 320 (СЗ) 14000 м    8/8 300 м 
[Sc]
+11.6 +4.6 62 +12  1013.6  0.9  751  289           
09 27.05.17 340 (С) 15000 м    6/6 300 м 
[Sc]
+12.4 +5.5 63 +12  1014.4  0.8  751  289           
12 27.05.17 340 (С) 15000 м    6/6 300 м 
[Sc]
+12.4 +2.5 51 +12  1015.4  752  289           
18 27.05.17 360 (С) 10 км    8/8 300 м 
[Cu med, cong]
+8.5 -0.5 53 +10  1015.9  0.3  752  294           
21 27.05.17 060 (СВ) 10 км    3/3 300 м 
[Cu med, cong]
+6.6 -1.3 57 +6  1016.3  0.4  753  296           
00 28.05.17 тихо ()   10 км    10/10 300 м 
[Sc]
+6.1 -2.6 54 +6  1016.9  0.4  753  297           
03 28.05.17 270 (З) 11000 м    8/8 300 м 
[Sc]
+5.8 +0.1 67 +7  1016.7  -0.1  753  297  +5.4        мокрая 
06 28.05.17 350 (С) 13000 м    4/4 300 м 
[Cu med, cong]
+9.7 -2.3 43 +9  1017  0.5  753  293           
09 28.05.17 330 (СЗ) 14000 м    4/4 300 м 
[Cu med, cong]
+10.3 -2.4 41 +9  1017.6  0.6  754  293           
12 28.05.17 320 (СЗ) 15000 м    3/3 300 м 
[Sc]
+11.4 -6 29 +11  1017.9  0.3  754  292           
18 28.05.17 160 (Ю) 10 км    10/10 300 м кучево-дожд. 
[Cb calv]
+8.9 -4 40 +10  1015.6  -1.3  752  294           
21 28.05.17 120 (ЮВ) 10 км    10/10 300 м 
[Sc]
+7.7 -3.2 46 +8  1013.7  -1.9  751  295           
03 29.05.17 160 (Ю) 3{10}  12000 м    10/10 300 м 
[Sc]
+6.3 +4.1 86 +5  1003.1  -5.5  743  292  +5.1    0.7    мокрая 
06 29.05.17 030 (СВ) 13000 м  в посл. час ливневой дождь  10/10 600 м 
[Cu med, cong]
+11.6 +8.1 79 +13  1000  -2.7  741  285           
09 29.05.17 270 (З) 11000 м  слаб. ливневой дождь  10/10 300 м кучево-дожд. 
[Cb cap]
+12.9 +11.5 91 +13  999.7  -0.3             
18 29.05.17 320 (СЗ) 4000 м  слаб. ливневой дождь  10/10 300 м кучево-дожд. 
[Cb cap]
+12.3 +10.9 91 +17  1001.2  1.2  742  284           
Время (UTC), дата Ветер
(°,м/с) 
Видим.   Явления Облачность Т
(°С)
Тd
(°С)
f(%) Тe
(°С)
Pmin
(гПа)
dP
(гПа)
Po
(мм)
O2
(г/м3)
Тmin Tmax R s Состояние
почвы

Для получения пояснительной информации подведите курсор к названию столбца.

ПОГОДА в Рыбинске - архив

Всё, что Вы хотите узнать о погоде в Рыбинске - удобно и подробно!

Выберите нужную дату (начиная с 1 января 2015* года) и нажмите кнопку "Найти".
Будут отображены архивные сводки погоды по пункту Рыбинск, начиная с указанной даты.


Отображать данные в формате CSV (для использования в таблицах Excel)


Внимание! Наш архив погоды предназначен исключительно для личного некоммерческого использования в познавательных целях. Если Вам необходимы официальные справки о состоянии погоды (для производственных, юридических, коммерческих и т.п. целей), обращайтесь в органы Росгидромета.

*Примечание: данная дата относится к архиву по метеостанциям СССР (Россия, СНГ, Балтия).
Архив по метеостанциям Зарубежной Европы и Азии (кроме Китая) хранится 10 дней, по другим регионам земного шара (Китай, Африка, Америка, Австралия, Океания) - 1 день.

Рыбинск - район местоположения метеостанции


Название, широта, долгота, высота метеостанции:
Рыбинск 58.1°ш. 38.7°д. 105 м над ур. моря [Российская Федерация]

Дополнительная информация

В oтличие oт бoльшинства пoгoдных сайтoв мы публикуем пoдрoбную метеoинфoрмацию в детальнoм прoфессиoнальнoм фoрмате.

Характеристики температуры и влажнoсти вoздуха измеряются на высoте 2 м в тени вдали oт зданий и деревьев.
Скoрoсть ветра измеряется на высoте 10 м (на урoвне рoста челoвека скoрoсть ветра ниже в 1.5-2 раза). Если метеoстанция нахoдится в гoрoде или в лесу, тo скoрoсть ветра занижена на 2-4 м/с пo сравнению с oткрытым местoм. Скoрoсть ветра над акватoриями крупных рек и oзёр, а также на вершинах хoлмoв на 2-5 м/с выше, чем в oбычных услoвиях.
Атмoсфернoе давление в разных тoчках местнoсти мoжет значительнo oтличаться oт давления на метеoстанции, в зависимoсти oт услoвий рельефа (при пoдъёме на 10 м давление пoнижается примернo на 1 мм рт.ст.).